Time,TemperatureF,DewpointF,PressureIn,WindDirection,WindDirectionDegrees,WindSpeedMPH,WindSpeedGustMPH,Humidity,HourlyPrecipIn,Conditions,Clouds,dailyrainin,SoftwareType,DateUTC
2013-03-03 00:01:00,30.6,19.5,30.22,North,358,1.0,3.0,63,0.00,,,0.00,Wunderground v.1.15,2013-03-03 06:01:00,
2013-03-03 00:07:00,30.6,18.7,30.22,NNW,328,2.0,5.0,61,0.00,,,0.00,Wunderground v.1.15,2013-03-03 06:07:00,
2013-03-03 00:13:00,30.6,18.0,30.22,WNW,300,3.0,4.0,59,0.00,,,0.00,Wunderground v.1.15,2013-03-03 06:13:00,
2013-03-03 00:19:00,30.6,18.0,30.22,NW,318,5.0,5.0,59,0.00,,,0.00,Wunderground v.1.15,2013-03-03 06:19:00,
2013-03-03 00:25:00,30.6,18.0,30.22,NNE,30,2.0,6.0,59,0.00,,,0.00,Wunderground v.1.15,2013-03-03 06:25:00,
2013-03-03 00:30:00,30.4,18.5,30.21,NE,38,2.0,4.0,61,0.00,,,0.00,Wunderground v.1.15,2013-03-03 06:30:00,
2013-03-03 00:36:00,30.3,18.5,30.22,NNW,328,6.0,6.0,61,0.00,,,0.00,Wunderground v.1.15,2013-03-03 06:36:00,
2013-03-03 00:41:00,30.2,18.4,30.21,NW,321,2.0,5.0,61,0.00,,,0.00,Wunderground v.1.15,2013-03-03 06:41:00,
2013-03-03 00:47:00,30.1,17.9,30.22,NNW,335,4.0,5.0,60,0.00,,,0.00,Wunderground v.1.15,2013-03-03 06:47:00,
2013-03-03 00:53:00,29.8,18.0,30.21,NW,319,3.0,4.0,61,0.00,,,0.00,Wunderground v.1.15,2013-03-03 06:53:00,
2013-03-03 00:59:00,29.6,17.8,30.21,NNW,328,2.0,5.0,61,0.00,,,0.00,Wunderground v.1.15,2013-03-03 06:59:00,
2013-03-03 01:04:00,29.5,18.1,30.21,North,352,3.0,3.0,62,0.00,,,0.00,Wunderground v.1.15,2013-03-03 07:04:00,
2013-03-03 01:10:00,29.4,18.0,30.21,NNW,341,3.0,3.0,62,0.00,,,0.00,Wunderground v.1.15,2013-03-03 07:10:00,
2013-03-03 01:15:00,29.2,18.5,30.21,North,9,2.0,4.0,64,0.00,,,0.00,Wunderground v.1.15,2013-03-03 07:15:00,
2013-03-03 01:21:00,29.1,18.4,30.21,NW,326,0.0,2.0,64,0.00,,,0.00,Wunderground v.1.15,2013-03-03 07:21:00,
2013-03-03 01:27:00,29.0,18.3,30.21,NW,315,0.0,3.0,64,0.00,,,0.00,Wunderground v.1.15,2013-03-03 07:27:00,
2013-03-03 01:33:00,29.0,18.7,30.22,North,354,3.0,3.0,65,0.00,,,0.00,Wunderground v.1.15,2013-03-03 07:33:00,
2013-03-03 01:38:00,29.0,18.7,30.21,NNW,345,0.0,5.0,65,0.00,,,0.00,Wunderground v.1.15,2013-03-03 07:38:00,
2013-03-03 01:44:00,28.8,18.9,30.21,NNW,347,0.0,3.0,66,0.00,,,0.00,Wunderground v.1.15,2013-03-03 07:44:00,
2013-03-03 01:50:00,28.5,18.9,30.21,NW,326,1.0,1.0,67,0.00,,,0.00,Wunderground v.1.15,2013-03-03 07:50:00,
2013-03-03 01:56:00,28.5,18.9,30.21,NW,316,0.0,3.0,67,0.00,,,0.00,Wunderground v.1.15,2013-03-03 07:56:00,
2013-03-03 02:01:00,28.4,19.2,30.21,NW,323,0.0,2.0,68,0.00,,,0.00,Wunderground v.1.15,2013-03-03 08:01:00,
2013-03-03 02:06:00,28.3,19.1,30.20,North,351,3.0,5.0,68,0.00,,,0.00,Wunderground v.1.15,2013-03-03 08:06:00,
2013-03-03 02:11:00,28.1,19.2,30.21,North,351,0.0,2.0,69,0.00,,,0.00,Wunderground v.1.15,2013-03-03 08:11:00,
2013-03-03 02:16:00,27.8,19.6,30.21,NNW,333,0.0,2.0,71,0.00,,,0.00,Wunderground v.1.15,2013-03-03 08:16:00,
2013-03-03 02:21:00,27.5,19.3,30.21,NNW,333,0.0,1.0,71,0.00,,,0.00,Wunderground v.1.15,2013-03-03 08:21:00,
2013-03-03 02:26:00,27.4,19.6,30.21,North,349,0.0,2.0,72,0.00,,,0.00,Wunderground v.1.15,2013-03-03 08:26:00,
2013-03-03 02:31:00,27.4,19.6,30.20,NNW,342,1.0,1.0,72,0.00,,,0.00,Wunderground v.1.15,2013-03-03 08:31:00,
2013-03-03 02:36:00,27.4,19.6,30.20,NNW,330,1.0,3.0,72,0.00,,,0.00,Wunderground v.1.15,2013-03-03 08:36:00,
2013-03-03 02:41:00,27.4,19.6,30.20,NW,326,1.0,2.0,72,0.00,,,0.00,Wunderground v.1.15,2013-03-03 08:41:00,
2013-03-03 02:46:00,27.5,20.0,30.20,North,7,0.0,3.0,73,0.00,,,0.00,Wunderground v.1.15,2013-03-03 08:46:00,
2013-03-03 02:51:00,27.4,19.9,30.20,North,350,1.0,2.0,73,0.00,,,0.00,Wunderground v.1.15,2013-03-03 08:51:00,
2013-03-03 02:56:00,27.4,19.9,30.20,NE,38,0.0,4.0,73,0.00,,,0.00,Wunderground v.1.15,2013-03-03 08:56:00,
2013-03-03 03:01:00,27.3,19.8,30.20,NNW,327,0.0,2.0,73,0.00,,,0.00,Wunderground v.1.15,2013-03-03 09:01:00,
2013-03-03 03:06:00,27.3,19.8,30.21,NW,319,1.0,3.0,73,0.00,,,0.00,Wunderground v.1.15,2013-03-03 09:06:00,
2013-03-03 03:11:00,27.3,19.8,30.21,NW,326,2.0,4.0,73,0.00,,,0.00,Wunderground v.1.15,2013-03-03 09:11:00,
2013-03-03 03:16:00,27.3,19.8,30.20,NNW,328,0.0,4.0,73,0.00,,,0.00,Wunderground v.1.15,2013-03-03 09:16:00,
2013-03-03 03:21:00,27.1,19.9,30.21,North,9,0.0,2.0,74,0.00,,,0.00,Wunderground v.1.15,2013-03-03 09:21:00,
2013-03-03 03:26:00,26.9,20.0,30.21,NNW,338,1.0,2.0,75,0.00,,,0.00,Wunderground v.1.15,2013-03-03 09:26:00,
2013-03-03 03:31:00,26.7,19.8,30.21,NNW,333,1.0,1.0,75,0.00,,,0.00,Wunderground v.1.15,2013-03-03 09:31:00,
2013-03-03 03:36:00,26.6,19.7,30.20,NNW,346,1.0,3.0,75,0.00,,,0.00,Wunderground v.1.15,2013-03-03 09:36:00,
2013-03-03 03:41:00,26.6,19.7,30.20,NW,317,0.0,1.0,75,0.00,,,0.00,Wunderground v.1.15,2013-03-03 09:41:00,
2013-03-03 03:46:00,26.5,19.6,30.20,NNW,333,1.0,2.0,75,0.00,,,0.00,Wunderground v.1.15,2013-03-03 09:46:00,
2013-03-03 03:51:00,26.2,19.7,30.20,NW,307,0.0,1.0,76,0.00,,,0.00,Wunderground v.1.15,2013-03-03 09:51:00,
2013-03-03 03:56:00,26.0,19.5,30.20,NW,307,0.0,1.0,76,0.00,,,0.00,Wunderground v.1.15,2013-03-03 09:56:00,
2013-03-03 04:01:00,25.8,19.3,30.20,NW,307,1.0,1.0,76,0.00,,,0.00,Wunderground v.1.15,2013-03-03 10:01:00,
2013-03-03 04:06:00,25.8,19.6,30.20,NW,307,1.0,1.0,77,0.00,,,0.00,Wunderground v.1.15,2013-03-03 10:06:00,
2013-03-03 04:11:00,25.8,19.6,30.20,NNW,327,0.0,2.0,77,0.00,,,0.00,Wunderground v.1.15,2013-03-03 10:11:00,
2013-03-03 04:16:00,25.6,19.4,30.20,NW,316,0.0,2.0,77,0.00,,,0.00,Wunderground v.1.15,2013-03-03 10:16:00,
2013-03-03 04:21:00,25.4,19.2,30.20,NW,316,0.0,0.0,77,0.00,,,0.00,Wunderground v.1.15,2013-03-03 10:21:00,
2013-03-03 04:26:00,25.3,19.4,30.20,NW,316,0.0,0.0,78,0.00,,,0.00,Wunderground v.1.15,2013-03-03 10:26:00,
2013-03-03 04:31:00,25.2,19.3,30.20,NW,316,1.0,1.0,78,0.00,,,0.00,Wunderground v.1.15,2013-03-03 10:31:00,
2013-03-03 04:36:00,25.1,19.5,30.20,NW,326,0.0,3.0,79,0.00,,,0.00,Wunderground v.1.15,2013-03-03 10:36:00,
2013-03-03 04:41:00,24.8,19.2,30.20,NW,326,0.0,0.0,79,0.00,,,0.00,Wunderground v.1.15,2013-03-03 10:41:00,
2013-03-03 04:46:00,24.8,19.2,30.20,NW,321,0.0,1.0,79,0.00,,,0.00,Wunderground v.1.15,2013-03-03 10:46:00,
2013-03-03 04:51:00,24.7,19.4,30.20,NW,308,0.0,1.0,80,0.00,,,0.00,Wunderground v.1.15,2013-03-03 10:51:00,
2013-03-03 04:56:00,24.6,19.3,30.20,NW,308,0.0,1.0,80,0.00,,,0.00,Wunderground v.1.15,2013-03-03 10:56:00,
2013-03-03 05:02:00,24.2,19.2,30.20,NW,308,0.0,0.0,81,0.00,,,0.00,Wunderground v.1.15,2013-03-03 11:02:00,
2013-03-03 05:07:00,24.0,19.3,30.20,NW,308,0.0,0.0,82,0.00,,,0.00,Wunderground v.1.15,2013-03-03 11:07:00,
2013-03-03 05:12:00,23.8,19.1,30.21,NW,308,0.0,0.0,82,0.00,,,0.00,Wunderground v.1.15,2013-03-03 11:12:00,
2013-03-03 05:17:00,23.6,18.9,30.21,NW,308,0.0,0.0,82,0.00,,,0.00,Wunderground v.1.15,2013-03-03 11:17:00,
2013-03-03 05:22:00,23.3,18.9,30.21,NW,308,0.0,0.0,83,0.00,,,0.00,Wunderground v.1.15,2013-03-03 11:22:00,
2013-03-03 05:27:00,23.2,19.1,30.20,NW,307,0.0,0.0,84,0.00,,,0.00,Wunderground v.1.15,2013-03-03 11:27:00,
2013-03-03 05:32:00,23.1,19.0,30.20,NW,308,0.0,0.0,84,0.00,,,0.00,Wunderground v.1.15,2013-03-03 11:32:00,
2013-03-03 05:37:00,23.0,18.9,30.20,NW,308,0.0,0.0,84,0.00,,,0.00,Wunderground v.1.15,2013-03-03 11:37:00,
2013-03-03 05:42:00,22.6,18.2,30.20,NW,308,0.0,0.0,83,0.00,,,0.00,Wunderground v.1.15,2013-03-03 11:42:00,
2013-03-03 05:47:00,22.1,18.3,30.20,NW,308,0.0,0.0,85,0.00,,,0.00,Wunderground v.1.15,2013-03-03 11:47:00,
2013-03-03 05:52:00,22.2,18.7,30.20,NW,308,0.0,0.0,86,0.00,,,0.00,Wunderground v.1.15,2013-03-03 11:52:00,
2013-03-03 05:57:00,22.2,18.7,30.20,NW,308,0.0,0.0,86,0.00,,,0.00,Wunderground v.1.15,2013-03-03 11:57:00,
2013-03-03 06:02:00,22.0,18.5,30.21,NW,308,0.0,0.0,86,0.00,,,0.00,Wunderground v.1.15,2013-03-03 12:02:00,
2013-03-03 06:07:00,21.6,18.3,30.20,NW,308,0.0,0.0,87,0.00,,,0.00,Wunderground v.1.15,2013-03-03 12:07:00,
2013-03-03 06:12:00,21.3,18.3,30.21,NW,308,0.0,0.0,88,0.00,,,0.00,Wunderground v.1.15,2013-03-03 12:12:00,
2013-03-03 06:17:00,21.0,18.0,30.21,NW,308,0.0,0.0,88,0.00,,,0.00,Wunderground v.1.15,2013-03-03 12:17:00,
2013-03-03 06:22:00,20.8,17.8,30.21,NW,307,0.0,0.0,88,0.00,,,0.00,Wunderground v.1.15,2013-03-03 12:22:00,
2013-03-03 06:27:00,20.5,17.8,30.21,NW,308,0.0,0.0,89,0.00,,,0.00,Wunderground v.1.15,2013-03-03 12:27:00,
2013-03-03 06:32:00,20.4,17.9,30.21,NW,308,0.0,0.0,90,0.00,,,0.00,Wunderground v.1.15,2013-03-03 12:32:00,
2013-03-03 06:37:00,20.2,17.7,30.21,NW,308,0.0,0.0,90,0.00,,,0.00,Wunderground v.1.15,2013-03-03 12:37:00,
2013-03-03 06:42:00,20.4,18.2,30.21,NW,308,0.0,0.0,91,0.00,,,0.00,Wunderground v.1.15,2013-03-03 12:42:00,
2013-03-03 06:47:00,20.4,17.9,30.21,NW,308,0.0,0.0,90,0.00,,,0.00,Wunderground v.1.15,2013-03-03 12:47:00,
2013-03-03 06:52:00,20.6,18.1,30.21,NW,308,0.0,0.0,90,0.00,,,0.00,Wunderground v.1.15,2013-03-03 12:52:00,
2013-03-03 06:57:00,21.0,18.5,30.21,NW,307,0.0,0.0,90,0.00,,,0.00,Wunderground v.1.15,2013-03-03 12:57:00,
2013-03-03 07:02:00,21.5,19.0,30.21,NW,308,0.0,0.0,90,0.00,,,0.00,Wunderground v.1.15,2013-03-03 13:02:00,
2013-03-03 07:07:00,22.1,19.4,30.21,NW,308,0.0,0.0,89,0.00,,,0.00,Wunderground v.1.15,2013-03-03 13:07:00,
2013-03-03 07:12:00,22.9,20.1,30.21,NW,307,1.0,1.0,89,0.00,,,0.00,Wunderground v.1.15,2013-03-03 13:12:00,
2013-03-03 07:17:00,23.7,20.7,30.21,NW,308,0.0,1.0,88,0.00,,,0.00,Wunderground v.1.15,2013-03-03 13:17:00,
2013-03-03 07:22:00,24.3,20.4,30.21,NW,308,1.0,2.0,85,0.00,,,0.00,Wunderground v.1.15,2013-03-03 13:22:00,
2013-03-03 07:28:00,24.8,20.7,30.22,NW,308,2.0,2.0,84,0.00,,,0.00,Wunderground v.1.15,2013-03-03 13:28:00,
2013-03-03 07:33:00,25.2,20.8,30.22,NW,307,2.0,2.0,83,0.00,,,0.00,Wunderground v.1.15,2013-03-03 13:33:00,
2013-03-03 07:38:00,25.5,21.1,30.22,WNW,292,2.0,3.0,83,0.00,,,0.00,Wunderground v.1.15,2013-03-03 13:38:00,
2013-03-03 07:43:00,25.9,21.2,30.22,NW,319,1.0,3.0,82,0.00,,,0.00,Wunderground v.1.15,2013-03-03 13:43:00,
2013-03-03 07:48:00,26.3,21.6,30.22,NE,37,0.0,3.0,82,0.00,,,0.00,Wunderground v.1.15,2013-03-03 13:48:00,
2013-03-03 07:53:00,26.9,21.8,30.22,NW,319,1.0,3.0,81,0.00,,,0.00,Wunderground v.1.15,2013-03-03 13:53:00,
2013-03-03 07:58:00,27.3,21.6,30.22,NE,44,5.0,7.0,79,0.00,,,0.00,Wunderground v.1.15,2013-03-03 13:58:00,
2013-03-03 08:03:00,27.4,21.1,30.22,NE,48,4.0,6.0,77,0.00,,,0.00,Wunderground v.1.15,2013-03-03 14:03:00,
2013-03-03 08:08:00,27.6,21.6,30.22,NW,311,1.0,6.0,78,0.00,,,0.00,Wunderground v.1.15,2013-03-03 14:08:00,
2013-03-03 08:13:00,28.0,21.7,30.22,NW,317,2.0,4.0,77,0.00,,,0.00,Wunderground v.1.15,2013-03-03 14:13:00,
2013-03-03 08:18:00,28.2,21.6,30.22,ENE,77,1.0,5.0,76,0.00,,,0.00,Wunderground v.1.15,2013-03-03 14:18:00,
2013-03-03 08:23:00,28.2,21.0,30.22,NW,316,3.0,4.0,74,0.00,,,0.00,Wunderground v.1.15,2013-03-03 14:23:00,
2013-03-03 08:28:00,28.2,20.7,30.22,WNW,301,5.0,5.0,73,0.00,,,0.00,Wunderground v.1.15,2013-03-03 14:28:00,
2013-03-03 08:33:00,28.6,21.7,30.22,NE,46,3.0,4.0,75,0.00,,,0.00,Wunderground v.1.15,2013-03-03 14:33:00,
2013-03-03 08:38:00,28.8,21.2,30.22,NNE,25,3.0,6.0,73,0.00,,,0.00,Wunderground v.1.15,2013-03-03 14:38:00,
2013-03-03 08:43:00,28.9,21.3,30.22,NE,50,2.0,4.0,73,0.00,,,0.00,Wunderground v.1.15,2013-03-03 14:43:00,
2013-03-03 08:48:00,29.1,21.2,30.22,North,4,2.0,5.0,72,0.00,,,0.00,Wunderground v.1.15,2013-03-03 14:48:00,
2013-03-03 08:53:00,29.2,20.6,30.22,NE,44,4.0,6.0,70,0.00,,,0.00,Wunderground v.1.15,2013-03-03 14:53:00,
2013-03-03 08:58:00,29.3,20.7,30.22,NNW,331,2.0,6.0,70,0.00,,,0.00,Wunderground v.1.15,2013-03-03 14:58:00,
2013-03-03 09:03:00,29.5,20.6,30.22,NW,316,5.0,7.0,69,0.00,,,0.00,Wunderground v.1.15,2013-03-03 15:03:00,
2013-03-03 09:08:00,29.7,20.1,30.22,NW,319,1.0,7.0,67,0.00,,,0.00,Wunderground v.1.15,2013-03-03 15:08:00,
2013-03-03 09:13:00,29.6,19.6,30.23,NW,311,2.0,6.0,66,0.00,,,0.00,Wunderground v.1.15,2013-03-03 15:13:00,
2013-03-03 09:18:00,29.8,20.2,30.23,NNW,336,2.0,8.0,67,0.00,,,0.00,Wunderground v.1.15,2013-03-03 15:18:00,
2013-03-03 09:23:00,29.9,19.9,30.22,North,359,3.0,6.0,66,0.00,,,0.00,Wunderground v.1.15,2013-03-03 15:23:00,
2013-03-03 09:28:00,30.0,20.4,30.23,NNE,30,5.0,7.0,67,0.00,,,0.00,Wunderground v.1.15,2013-03-03 15:28:00,
2013-03-03 09:33:00,30.4,20.0,30.23,NE,50,3.0,5.0,65,0.00,,,0.00,Wunderground v.1.15,2013-03-03 15:33:00,
2013-03-03 09:38:00,30.6,20.2,30.23,North,352,5.0,6.0,65,0.00,,,0.00,Wunderground v.1.15,2013-03-03 15:38:00,
2013-03-03 09:43:00,30.7,19.6,30.23,NE,44,3.0,5.0,63,0.00,,,0.00,Wunderground v.1.15,2013-03-03 15:43:00,
2013-03-03 09:48:00,30.8,20.4,30.23,East,82,0.0,6.0,65,0.00,,,0.00,Wunderground v.1.15,2013-03-03 15:48:00,
2013-03-03 09:53:00,30.5,19.8,30.22,NE,40,3.0,9.0,64,0.00,,,0.00,Wunderground v.1.15,2013-03-03 15:53:00,
2013-03-03 09:58:00,31.1,21.4,30.23,NNE,26,0.0,9.0,67,0.00,,,0.00,Wunderground v.1.15,2013-03-03 15:58:00,
2013-03-03 10:03:00,31.2,21.2,30.22,NE,47,8.0,8.0,66,0.00,,,0.00,Wunderground v.1.15,2013-03-03 16:03:00,
2013-03-03 10:09:00,31.3,20.9,30.22,NW,311,3.0,8.0,65,0.00,,,0.00,Wunderground v.1.15,2013-03-03 16:09:00,
2013-03-03 10:13:00,31.1,20.3,30.22,NE,46,4.0,5.0,64,0.00,,,0.00,Wunderground v.1.15,2013-03-03 16:13:00,
2013-03-03 10:18:00,31.5,20.7,30.22,SW,217,1.0,7.0,64,0.00,,,0.00,Wunderground v.1.15,2013-03-03 16:18:00,
2013-03-03 10:24:00,31.8,21.0,30.22,NNW,337,4.0,8.0,64,0.00,,,0.00,Wunderground v.1.15,2013-03-03 16:24:00,
2013-03-03 10:29:00,31.9,20.7,30.22,NW,307,3.0,8.0,63,0.00,,,0.00,Wunderground v.1.15,2013-03-03 16:29:00,
2013-03-03 10:34:00,31.8,20.6,30.22,NNW,330,3.0,5.0,63,0.00,,,0.00,Wunderground v.1.15,2013-03-03 16:34:00,
2013-03-03 10:39:00,32.1,19.4,30.22,NE,49,0.0,7.0,59,0.00,,,0.00,Wunderground v.1.15,2013-03-03 16:39:00,
2013-03-03 10:44:00,32.3,20.0,30.22,West,276,2.0,6.0,60,0.00,,,0.00,Wunderground v.1.15,2013-03-03 16:44:00,
2013-03-03 10:49:00,32.5,20.9,30.22,NW,315,5.0,6.0,62,0.00,,,0.00,Wunderground v.1.15,2013-03-03 16:49:00,
2013-03-03 10:54:00,32.8,20.8,30.22,NNW,340,3.0,8.0,61,0.00,,,0.00,Wunderground v.1.15,2013-03-03 16:54:00,
2013-03-03 10:59:00,33.2,19.2,30.22,NW,311,1.0,8.0,56,0.00,,,0.00,Wunderground v.1.15,2013-03-03 16:59:00,
2013-03-03 11:04:00,33.1,19.9,30.22,NW,307,4.0,7.0,58,0.00,,,0.00,Wunderground v.1.15,2013-03-03 17:04:00,
2013-03-03 11:09:00,33.2,19.2,30.21,NW,307,5.0,10.0,56,0.00,,,0.00,Wunderground v.1.15,2013-03-03 17:09:00,
2013-03-03 11:14:00,33.5,19.5,30.22,NW,321,3.0,5.0,56,0.00,,,0.00,Wunderground v.1.15,2013-03-03 17:14:00,
2013-03-03 11:19:00,34.1,22.0,30.21,NNW,328,2.0,8.0,61,0.00,,,0.00,Wunderground v.1.15,2013-03-03 17:19:00,
2013-03-03 11:24:00,34.5,21.2,30.21,NW,309,7.0,11.0,58,0.00,,,0.00,Wunderground v.1.15,2013-03-03 17:24:00,
2013-03-03 11:29:00,34.3,18.9,30.21,NW,319,1.0,11.0,53,0.00,,,0.00,Wunderground v.1.15,2013-03-03 17:29:00,
2013-03-03 11:34:00,34.7,19.7,30.20,SW,221,3.0,5.0,54,0.00,,,0.00,Wunderground v.1.15,2013-03-03 17:34:00,
2013-03-03 11:39:00,34.8,18.0,30.20,NW,316,5.0,6.0,50,0.00,,,0.00,Wunderground v.1.15,2013-03-03 17:39:00,
2013-03-03 11:44:00,35.0,18.2,30.20,WNW,300,4.0,7.0,50,0.00,,,0.00,Wunderground v.1.15,2013-03-03 17:44:00,
2013-03-03 11:49:00,35.2,18.4,30.20,WNW,298,0.0,8.0,50,0.00,,,0.00,Wunderground v.1.15,2013-03-03 17:49:00,
2013-03-03 11:54:00,35.6,18.8,30.19,NNW,333,1.0,4.0,50,0.00,,,0.00,Wunderground v.1.15,2013-03-03 17:54:00,
2013-03-03 11:59:00,36.3,19.4,30.19,North,356,3.0,5.0,50,0.00,,,0.00,Wunderground v.1.15,2013-03-03 17:59:00,
2013-03-03 12:04:00,36.0,19.6,30.19,NE,50,4.0,5.0,51,0.00,,,0.00,Wunderground v.1.15,2013-03-03 18:04:00,
2013-03-03 12:09:00,36.4,19.0,30.18,ENE,70,3.0,6.0,49,0.00,,,0.00,Wunderground v.1.15,2013-03-03 18:09:00,
2013-03-03 12:14:00,37.1,20.2,30.18,West,267,1.0,3.0,50,0.00,,,0.00,Wunderground v.1.15,2013-03-03 18:14:00,
2013-03-03 12:19:00,37.4,19.5,30.18,WSW,257,2.0,5.0,48,0.00,,,0.00,Wunderground v.1.15,2013-03-03 18:19:00,
2013-03-03 12:24:00,37.2,21.6,30.18,NW,312,3.0,5.0,53,0.00,,,0.00,Wunderground v.1.15,2013-03-03 18:24:00,
2013-03-03 12:29:00,37.4,20.0,30.18,West,278,3.0,8.0,49,0.00,,,0.00,Wunderground v.1.15,2013-03-03 18:29:00,
2013-03-03 12:34:00,37.4,20.0,30.17,WNW,288,5.0,5.0,49,0.00,,,0.01,Wunderground v.1.15,2013-03-03 18:34:00,
2013-03-03 12:39:00,38.0,21.5,30.17,NW,305,7.0,7.0,51,0.00,,,0.01,Wunderground v.1.15,2013-03-03 18:39:00,
2013-03-03 12:44:00,37.7,18.2,30.17,WNW,302,6.0,8.0,45,0.00,,,0.01,Wunderground v.1.15,2013-03-03 18:44:00,
2013-03-03 12:49:00,37.5,19.1,30.17,West,275,4.0,8.0,47,0.00,,,0.01,Wunderground v.1.15,2013-03-03 18:49:00,
2013-03-03 12:54:00,38.0,18.5,30.17,WSW,244,1.0,5.0,45,0.00,,,0.01,Wunderground v.1.15,2013-03-03 18:54:00,
2013-03-03 12:59:00,38.5,19.5,30.17,WNW,293,6.0,8.0,46,0.00,,,0.01,Wunderground v.1.15,2013-03-03 18:59:00,
2013-03-03 13:04:00,38.1,19.6,30.17,NW,314,8.0,10.0,47,0.00,,,0.01,Wunderground v.1.15,2013-03-03 19:04:00,
2013-03-03 13:09:00,38.1,20.6,30.17,West,281,3.0,10.0,49,0.00,,,0.01,Wunderground v.1.15,2013-03-03 19:09:00,
2013-03-03 13:14:00,38.0,20.5,30.17,NW,311,8.0,8.0,49,0.00,,,0.01,Wunderground v.1.15,2013-03-03 19:14:00,
2013-03-03 13:19:00,38.0,20.5,30.16,West,280,6.0,6.0,49,0.00,,,0.01,Wunderground v.1.15,2013-03-03 19:19:00,
2013-03-03 13:24:00,38.2,20.2,30.16,WNW,293,3.0,11.0,48,0.00,,,0.01,Wunderground v.1.15,2013-03-03 19:24:00,
2013-03-03 13:30:00,38.7,19.2,30.16,NW,307,5.0,6.0,45,0.00,,,0.01,Wunderground v.1.15,2013-03-03 19:30:00,
2013-03-03 13:35:00,38.4,18.4,30.16,West,260,6.0,10.0,44,0.00,,,0.01,Wunderground v.1.15,2013-03-03 19:35:00,
2013-03-03 13:40:00,38.4,17.8,30.16,NW,309,6.0,6.0,43,0.00,,,0.01,Wunderground v.1.15,2013-03-03 19:40:00,
2013-03-03 13:45:00,39.0,19.4,30.15,WSW,238,5.0,6.0,45,0.00,,,0.01,Wunderground v.1.15,2013-03-03 19:45:00,
2013-03-03 13:50:00,39.7,19.0,30.15,NW,321,5.0,6.0,43,0.00,,,0.01,Wunderground v.1.15,2013-03-03 19:50:00,
2013-03-03 13:55:00,39.4,18.7,30.15,WNW,283,1.0,7.0,43,0.00,,,0.01,Wunderground v.1.15,2013-03-03 19:55:00,
2013-03-03 14:00:00,39.4,18.7,30.15,NW,307,7.0,8.0,43,0.00,,,0.01,Wunderground v.1.15,2013-03-03 20:00:00,
2013-03-03 14:05:00,39.7,17.9,30.15,WNW,301,3.0,9.0,41,0.00,,,0.01,Wunderground v.1.15,2013-03-03 20:05:00,
2013-03-03 14:10:00,40.0,19.3,30.14,WSW,256,0.0,5.0,43,0.00,,,0.01,Wunderground v.1.15,2013-03-03 20:10:00,
2013-03-03 14:15:00,40.1,19.4,30.14,South,191,2.0,12.0,43,0.00,,,0.01,Wunderground v.1.15,2013-03-03 20:15:00,
2013-03-03 14:20:00,40.7,20.5,30.14,NNW,333,4.0,4.0,44,0.00,,,0.01,Wunderground v.1.15,2013-03-03 20:20:00,
2013-03-03 14:25:00,40.6,19.3,30.14,NW,315,5.0,7.0,42,0.00,,,0.01,Wunderground v.1.15,2013-03-03 20:25:00,
2013-03-03 14:30:00,40.6,21.4,30.14,WNW,297,6.0,6.0,46,0.00,,,0.01,Wunderground v.1.15,2013-03-03 20:30:00,
2013-03-03 14:36:00,40.6,19.8,30.14,NNW,340,4.0,7.0,43,0.00,,,0.01,Wunderground v.1.15,2013-03-03 20:36:00,
2013-03-03 14:41:00,40.2,20.0,30.14,NW,326,0.0,3.0,44,0.00,,,0.01,Wunderground v.1.15,2013-03-03 20:41:00,
2013-03-03 14:46:00,40.0,21.4,30.14,West,269,3.0,4.0,47,0.00,,,0.01,Wunderground v.1.15,2013-03-03 20:46:00,
2013-03-03 14:51:00,40.0,19.8,30.14,WNW,302,1.0,4.0,44,0.00,,,0.01,Wunderground v.1.15,2013-03-03 20:51:00,
2013-03-03 14:56:00,39.7,17.9,30.13,NW,323,4.0,5.0,41,0.00,,,0.01,Wunderground v.1.15,2013-03-03 20:56:00,
2013-03-03 15:01:00,39.6,18.9,30.13,WNW,301,1.0,3.0,43,0.00,,,0.01,Wunderground v.1.15,2013-03-03 21:01:00,
2013-03-03 15:06:00,39.7,20.6,30.13,WNW,295,2.0,3.0,46,0.00,,,0.01,Wunderground v.1.15,2013-03-03 21:06:00,
2013-03-03 15:11:00,39.9,21.3,30.13,West,280,3.0,5.0,47,0.00,,,0.01,Wunderground v.1.15,2013-03-03 21:11:00,
2013-03-03 15:16:00,39.7,20.6,30.13,NW,307,2.0,7.0,46,0.00,,,0.01,Wunderground v.1.15,2013-03-03 21:16:00,
2013-03-03 15:21:00,39.7,20.6,30.13,NW,307,3.0,3.0,46,0.00,,,0.01,Wunderground v.1.15,2013-03-03 21:21:00,
2013-03-03 15:26:00,39.7,20.6,30.13,West,267,4.0,6.0,46,0.00,,,0.01,Wunderground v.1.15,2013-03-03 21:26:00,
2013-03-03 15:31:00,39.5,19.9,30.13,SW,214,2.0,4.0,45,0.00,,,0.01,Wunderground v.1.15,2013-03-03 21:31:00,
2013-03-03 15:36:00,39.7,20.1,30.13,WNW,287,2.0,4.0,45,0.00,,,0.01,Wunderground v.1.15,2013-03-03 21:36:00,
2013-03-03 15:41:00,39.8,20.2,30.12,WNW,288,3.0,4.0,45,0.00,,,0.01,Wunderground v.1.15,2013-03-03 21:41:00,
2013-03-03 15:46:00,39.8,19.6,30.12,WNW,302,2.0,4.0,44,0.00,,,0.01,Wunderground v.1.15,2013-03-03 21:46:00,
2013-03-03 15:51:00,39.7,19.5,30.12,WNW,290,1.0,2.0,44,0.00,,,0.01,Wunderground v.1.15,2013-03-03 21:51:00,
2013-03-03 15:56:00,39.6,19.5,30.12,WNW,294,0.0,3.0,44,0.00,,,0.01,Wunderground v.1.15,2013-03-03 21:56:00,
2013-03-03 16:01:00,39.8,20.2,30.12,West,278,1.0,2.0,45,0.00,,,0.01,Wunderground v.1.15,2013-03-03 22:01:00,
2013-03-03 16:06:00,39.8,20.2,30.13,NW,316,4.0,4.0,45,0.00,,,0.01,Wunderground v.1.15,2013-03-03 22:06:00,
2013-03-03 16:11:00,39.7,20.1,30.13,NW,306,2.0,3.0,45,0.00,,,0.01,Wunderground v.1.15,2013-03-03 22:11:00,
2013-03-03 16:16:00,39.6,20.5,30.13,NW,313,3.0,6.0,46,0.00,,,0.01,Wunderground v.1.15,2013-03-03 22:16:00,
2013-03-03 16:21:00,39.5,21.4,30.12,WNW,302,1.0,3.0,48,0.00,,,0.01,Wunderground v.1.15,2013-03-03 22:21:00,
2013-03-03 16:26:00,39.5,20.4,30.12,WSW,249,2.0,4.0,46,0.00,,,0.01,Wunderground v.1.15,2013-03-03 22:26:00,
2013-03-03 16:31:00,39.5,21.4,30.12,NW,319,2.0,3.0,48,0.00,,,0.01,Wunderground v.1.15,2013-03-03 22:31:00,
2013-03-03 16:36:00,39.5,21.4,30.12,NW,316,1.0,3.0,48,0.00,,,0.01,Wunderground v.1.15,2013-03-03 22:36:00,
2013-03-03 16:41:00,39.3,21.2,30.12,WNW,284,1.0,3.0,48,0.00,,,0.01,Wunderground v.1.15,2013-03-03 22:41:00,
2013-03-03 16:46:00,39.3,22.2,30.12,WNW,298,3.0,4.0,50,0.00,,,0.01,Wunderground v.1.15,2013-03-03 22:46:00,
2013-03-03 16:51:00,39.2,21.1,30.12,WNW,296,2.0,2.0,48,0.00,,,0.01,Wunderground v.1.15,2013-03-03 22:51:00,
2013-03-03 16:56:00,39.2,20.6,30.12,WNW,295,0.0,2.0,47,0.00,,,0.01,Wunderground v.1.15,2013-03-03 22:56:00,
2013-03-03 17:01:00,39.3,21.2,30.11,WNW,295,0.0,1.0,48,0.00,,,0.01,Wunderground v.1.15,2013-03-03 23:01:00,
2013-03-03 17:06:00,39.3,21.2,30.11,WNW,295,0.0,1.0,48,0.00,,,0.01,Wunderground v.1.15,2013-03-03 23:06:00,
2013-03-03 17:11:00,39.2,20.6,30.11,WNW,295,1.0,1.0,47,0.00,,,0.01,Wunderground v.1.15,2013-03-03 23:11:00,
2013-03-03 17:16:00,39.1,20.5,30.11,WNW,298,0.0,1.0,47,0.00,,,0.01,Wunderground v.1.15,2013-03-03 23:16:00,
2013-03-03 17:21:00,39.3,21.2,30.11,WNW,297,0.0,0.0,48,0.00,,,0.01,Wunderground v.1.15,2013-03-03 23:21:00,
2013-03-03 17:26:00,39.2,21.1,30.11,WNW,298,0.0,0.0,48,0.00,,,0.01,Wunderground v.1.15,2013-03-03 23:26:00,
2013-03-03 17:31:00,39.1,21.0,30.11,WNW,297,0.0,0.0,48,0.00,,,0.01,Wunderground v.1.15,2013-03-03 23:31:00,
2013-03-03 17:36:00,38.9,21.3,30.11,WNW,297,0.0,0.0,49,0.00,,,0.01,Wunderground v.1.15,2013-03-03 23:36:00,
2013-03-03 17:41:00,38.9,20.9,30.11,WNW,297,0.0,1.0,48,0.00,,,0.01,Wunderground v.1.15,2013-03-03 23:41:00,
2013-03-03 17:46:00,38.8,21.3,30.11,WNW,298,0.0,1.0,49,0.00,,,0.01,Wunderground v.1.15,2013-03-03 23:46:00,
2013-03-03 17:51:00,38.7,21.2,30.11,WNW,297,0.0,0.0,49,0.00,,,0.01,Wunderground v.1.15,2013-03-03 23:51:00,
2013-03-03 17:56:00,38.6,21.5,30.11,WNW,297,0.0,0.0,50,0.00,,,0.01,Wunderground v.1.15,2013-03-03 23:56:00,
2013-03-03 18:01:00,38.5,21.9,30.11,WNW,298,1.0,1.0,51,0.00,,,0.01,Wunderground v.1.15,2013-03-04 00:01:00,
2013-03-03 18:06:00,38.5,21.9,30.11,WNW,298,0.0,1.0,51,0.00,,,0.01,Wunderground v.1.15,2013-03-04 00:06:00,
2013-03-03 18:11:00,38.4,21.8,30.12,WNW,300,1.0,2.0,51,0.00,,,0.01,Wunderground v.1.15,2013-03-04 00:11:00,
2013-03-03 18:16:00,38.3,22.6,30.12,WNW,298,0.0,2.0,53,0.00,,,0.01,Wunderground v.1.15,2013-03-04 00:16:00,
2013-03-03 18:21:00,38.1,22.9,30.12,WNW,300,0.0,0.0,54,0.00,,,0.01,Wunderground v.1.15,2013-03-04 00:21:00,
2013-03-03 18:26:00,38.0,22.4,30.11,WNW,298,0.0,0.0,53,0.00,,,0.01,Wunderground v.1.15,2013-03-04 00:26:00,
2013-03-03 18:31:00,38.0,22.8,30.11,WNW,298,0.0,0.0,54,0.00,,,0.01,Wunderground v.1.15,2013-03-04 00:31:00,
2013-03-03 18:36:00,37.8,23.5,30.11,WNW,298,0.0,0.0,56,0.00,,,0.01,Wunderground v.1.15,2013-03-04 00:36:00,
2013-03-03 18:41:00,37.6,23.7,30.11,WNW,298,0.0,0.0,57,0.00,,,0.01,Wunderground v.1.15,2013-03-04 00:41:00,
2013-03-03 18:46:00,37.4,23.1,30.11,WNW,298,0.0,0.0,56,0.00,,,0.01,Wunderground v.1.15,2013-03-04 00:46:00,
2013-03-03 18:52:00,37.2,22.5,30.12,WNW,297,0.0,0.0,55,0.00,,,0.01,Wunderground v.1.15,2013-03-04 00:52:00,
2013-03-03 18:57:00,37.1,22.4,30.11,WNW,297,0.0,0.0,55,0.00,,,0.01,Wunderground v.1.15,2013-03-04 00:57:00,
2013-03-03 19:02:00,36.9,22.7,30.11,WNW,298,0.0,0.0,56,0.00,,,0.01,Wunderground v.1.15,2013-03-04 01:02:00,
2013-03-03 19:07:00,36.8,23.0,30.11,WNW,297,0.0,0.0,57,0.00,,,0.01,Wunderground v.1.15,2013-03-04 01:07:00,
2013-03-03 19:12:00,36.5,21.8,30.11,WNW,300,0.0,0.0,55,0.00,,,0.01,Wunderground v.1.15,2013-03-04 01:12:00,
2013-03-03 19:17:00,36.5,23.1,30.11,WNW,300,0.0,0.0,58,0.00,,,0.01,Wunderground v.1.15,2013-03-04 01:17:00,
2013-03-03 19:22:00,36.4,23.4,30.11,WNW,298,0.0,0.0,59,0.00,,,0.01,Wunderground v.1.15,2013-03-04 01:22:00,
2013-03-03 19:27:00,36.2,24.8,30.12,WNW,298,0.0,1.0,63,0.00,,,0.01,Wunderground v.1.15,2013-03-04 01:27:00,
2013-03-03 19:32:00,36.0,24.2,30.12,WNW,298,0.0,0.0,62,0.00,,,0.01,Wunderground v.1.15,2013-03-04 01:32:00,
2013-03-03 19:37:00,35.8,24.4,30.11,WNW,298,0.0,0.0,63,0.00,,,0.01,Wunderground v.1.15,2013-03-04 01:37:00,
2013-03-03 19:42:00,35.7,25.1,30.11,WNW,297,0.0,0.0,65,0.00,,,0.01,Wunderground v.1.15,2013-03-04 01:42:00,
2013-03-03 19:47:00,35.8,26.3,30.12,WNW,298,0.0,0.0,68,0.00,,,0.01,Wunderground v.1.15,2013-03-04 01:47:00,
2013-03-03 19:52:00,35.7,24.7,30.11,WNW,297,0.0,0.0,64,0.00,,,0.01,Wunderground v.1.15,2013-03-04 01:52:00,
2013-03-03 19:57:00,35.8,24.8,30.12,WNW,298,0.0,0.0,64,0.00,,,0.01,Wunderground v.1.15,2013-03-04 01:57:00,
2013-03-03 20:02:00,35.8,24.4,30.11,WNW,298,0.0,0.0,63,0.00,,,0.01,Wunderground v.1.15,2013-03-04 02:02:00,
2013-03-03 20:07:00,35.8,23.3,30.11,WNW,298,0.0,0.0,60,0.00,,,0.01,Wunderground v.1.15,2013-03-04 02:07:00,
2013-03-03 20:12:00,36.0,24.6,30.11,WNW,298,0.0,0.0,63,0.00,,,0.01,Wunderground v.1.15,2013-03-04 02:12:00,
2013-03-03 20:17:00,36.0,25.0,30.12,WNW,298,0.0,0.0,64,0.00,,,0.01,Wunderground v.1.15,2013-03-04 02:17:00,
2013-03-03 20:22:00,36.0,25.4,30.12,WNW,297,0.0,0.0,65,0.00,,,0.01,Wunderground v.1.15,2013-03-04 02:22:00,
2013-03-03 20:27:00,36.0,25.7,30.12,WNW,298,0.0,0.0,66,0.00,,,0.01,Wunderground v.1.15,2013-03-04 02:27:00,
2013-03-03 20:32:00,35.9,24.5,30.12,WNW,297,0.0,0.0,63,0.00,,,0.01,Wunderground v.1.15,2013-03-04 02:32:00,
2013-03-03 20:37:00,36.0,25.4,30.12,WNW,298,0.0,0.0,65,0.00,,,0.01,Wunderground v.1.15,2013-03-04 02:37:00,
2013-03-03 20:42:00,35.9,25.3,30.12,WNW,297,0.0,0.0,65,0.00,,,0.01,Wunderground v.1.15,2013-03-04 02:42:00,
2013-03-03 20:47:00,35.9,24.9,30.12,WNW,297,0.0,0.0,64,0.00,,,0.01,Wunderground v.1.15,2013-03-04 02:47:00,
2013-03-03 20:52:00,35.9,25.6,30.13,WNW,297,0.0,0.0,66,0.00,,,0.01,Wunderground v.1.15,2013-03-04 02:52:00,
2013-03-03 20:57:00,35.9,24.9,30.12,WNW,298,0.0,0.0,64,0.00,,,0.01,Wunderground v.1.15,2013-03-04 02:57:00,
2013-03-03 21:02:00,36.0,25.0,30.13,WNW,297,0.0,0.0,64,0.00,,,0.01,Wunderground v.1.15,2013-03-04 03:02:00,
2013-03-03 21:07:00,36.0,26.1,30.13,WNW,298,0.0,0.0,67,0.00,,,0.01,Wunderground v.1.15,2013-03-04 03:07:00,
2013-03-03 21:12:00,36.1,26.2,30.12,WNW,297,0.0,0.0,67,0.00,,,0.01,Wunderground v.1.15,2013-03-04 03:12:00,
2013-03-03 21:17:00,36.1,26.6,30.12,WNW,297,0.0,0.0,68,0.00,,,0.01,Wunderground v.1.15,2013-03-04 03:17:00,
2013-03-03 21:22:00,36.1,26.2,30.12,WNW,297,0.0,0.0,67,0.00,,,0.01,Wunderground v.1.15,2013-03-04 03:22:00,
2013-03-03 21:27:00,36.2,24.8,30.12,WSW,246,0.0,1.0,63,0.00,,,0.01,Wunderground v.1.15,2013-03-04 03:27:00,
2013-03-03 21:32:00,36.3,25.7,30.12,WSW,246,0.0,0.0,65,0.00,,,0.01,Wunderground v.1.15,2013-03-04 03:32:00,
2013-03-03 21:37:00,36.3,26.4,30.12,WSW,246,0.0,0.0,67,0.00,,,0.01,Wunderground v.1.15,2013-03-04 03:37:00,
2013-03-03 21:42:00,36.3,25.3,30.12,WSW,238,0.0,1.0,64,0.00,,,0.01,Wunderground v.1.15,2013-03-04 03:42:00,
2013-03-03 21:47:00,36.3,25.3,30.11,SSW,203,1.0,1.0,64,0.00,,,0.01,Wunderground v.1.15,2013-03-04 03:47:00,
2013-03-03 21:52:00,36.3,24.5,30.11,SE,138,0.0,1.0,62,0.00,,,0.01,Wunderground v.1.15,2013-03-04 03:52:00,
2013-03-03 21:57:00,36.3,24.5,30.11,SE,139,0.0,1.0,62,0.00,,,0.01,Wunderground v.1.15,2013-03-04 03:57:00,
2013-03-03 22:02:00,36.3,24.9,30.11,SE,140,0.0,0.0,63,0.00,,,0.01,Wunderground v.1.15,2013-03-04 04:02:00,
2013-03-03 22:07:00,36.3,25.7,30.11,SE,138,0.0,1.0,65,0.00,,,0.01,Wunderground v.1.15,2013-03-04 04:07:00,
2013-03-03 22:12:00,36.2,25.6,30.11,SE,134,0.0,1.0,65,0.00,,,0.01,Wunderground v.1.15,2013-03-04 04:12:00,
2013-03-03 22:17:00,36.2,26.6,30.11,SE,134,0.0,1.0,68,0.00,,,0.01,Wunderground v.1.15,2013-03-04 04:17:00,
2013-03-03 22:22:00,36.2,26.3,30.11,SE,134,0.0,0.0,67,0.00,,,0.01,Wunderground v.1.15,2013-03-04 04:22:00,
2013-03-03 22:27:00,36.3,27.4,30.11,SE,132,1.0,1.0,70,0.00,,,0.01,Wunderground v.1.15,2013-03-04 04:27:00,
2013-03-03 22:32:00,36.3,27.1,30.11,SE,137,0.0,1.0,69,0.00,,,0.01,Wunderground v.1.15,2013-03-04 04:32:00,
2013-03-03 22:37:00,36.3,27.4,30.11,SE,137,0.0,1.0,70,0.00,,,0.01,Wunderground v.1.15,2013-03-04 04:37:00,
2013-03-03 22:42:00,36.3,25.3,30.11,SE,137,0.0,0.0,64,0.00,,,0.01,Wunderground v.1.15,2013-03-04 04:42:00,
2013-03-03 22:47:00,36.4,24.6,30.11,SE,146,0.0,1.0,62,0.00,,,0.01,Wunderground v.1.15,2013-03-04 04:47:00,
2013-03-03 22:52:00,36.5,24.7,30.11,SE,146,0.0,0.0,62,0.00,,,0.01,Wunderground v.1.15,2013-03-04 04:52:00,
2013-03-03 22:57:00,36.5,24.3,30.12,SE,146,0.0,0.0,61,0.00,,,0.01,Wunderground v.1.15,2013-03-04 04:57:00,
2013-03-03 23:00:00,36.5,25.1,30.12,SE,146,0.0,0.0,63,0.00,,,0.01,Wunderground v.1.15,2013-03-04 05:00:00,
2013-03-03 23:01:00,36.5,25.1,30.12,SE,145,0.0,0.0,63,0.00,,,0.01,Wunderground v.1.15,2013-03-04 05:01:00,
2013-03-03 23:06:00,36.5,24.3,30.12,SE,145,0.0,0.0,61,0.00,,,0.01,Wunderground v.1.15,2013-03-04 05:06:00,
2013-03-03 23:11:00,36.5,26.2,30.12,SE,145,0.0,0.0,66,0.00,,,0.01,Wunderground v.1.15,2013-03-04 05:11:00,
2013-03-03 23:16:00,36.4,25.7,30.12,SE,145,0.0,0.0,65,0.00,,,0.01,Wunderground v.1.15,2013-03-04 05:16:00,
2013-03-03 23:21:00,36.4,26.1,30.12,SE,143,0.0,0.0,66,0.00,,,0.01,Wunderground v.1.15,2013-03-04 05:21:00,
2013-03-03 23:26:00,36.4,25.0,30.12,SE,143,0.0,1.0,63,0.00,,,0.01,Wunderground v.1.15,2013-03-04 05:26:00,
2013-03-03 23:31:00,36.4,26.1,30.12,SE,143,0.0,0.0,66,0.00,,,0.01,Wunderground v.1.15,2013-03-04 05:31:00,
2013-03-03 23:36:00,36.4,27.2,30.12,SE,143,0.0,1.0,69,0.00,,,0.01,Wunderground v.1.15,2013-03-04 05:36:00,
2013-03-03 23:41:00,36.3,27.1,30.12,SE,143,0.0,0.0,69,0.00,,,0.01,Wunderground v.1.15,2013-03-04 05:41:00,
2013-03-03 23:46:00,36.3,26.7,30.12,SE,143,0.0,1.0,68,0.00,,,0.01,Wunderground v.1.15,2013-03-04 05:46:00,
2013-03-03 23:51:00,36.4,26.8,30.12,ESE,108,0.0,1.0,68,0.00,,,0.01,Wunderground v.1.15,2013-03-04 05:51:00,
2013-03-03 23:56:00,36.4,26.5,30.12,ESE,110,0.0,1.0,67,0.00,,,0.01,Wunderground v.1.15,2013-03-04 05:56:00,